When you browse on this site, cookies collect data to enhance your experience and personalize the content and advertising you see.
Visit our Privacy Policy to learn more. By continuing to use the site, you agree to this use of cookies and data.
  • In Hungary
  • List of Countries
  • For 7 days
  • Water Temperature
  • Weather Map
  • News
  • Weather Widgets
  • user-avatar
    Login

    Hourly Weather Baguim do Monte

    Today, 12 November, Tuesday

    Time Temperature Precipitation Wind Pressure Humidity
    00:00 +9°C° 0 mm 3 mps 753 mmHg 85%
    01:00 +8°C° 0 mm 3 mps 753 mmHg 85%
    02:00 +8°C° 0 mm 3 mps 752 mmHg 85%
    03:00 +8°C° 0 mm 3 mps 752 mmHg 84%
    04:00 +8°C° 0 mm 3 mps 752 mmHg 82%
    05:00 +8°C° 0 mm 3 mps 752 mmHg 81%
    06:00 +9°C° 0 mm 2 mps 752 mmHg 79%
    07:00 +10°C° 0 mm 2 mps 752 mmHg 77%
    08:00 +11°C° 0 mm 1 mps 752 mmHg 74%
    09:00 +12°C° 0 mm 1 mps 752 mmHg 71%
    10:00 +14°C° 0 mm 1 mps 752 mmHg 68%
    11:00 +15°C° 0 mm 1 mps 752 mmHg 64%
    12:00 +15°C° 0 mm 2 mps 751 mmHg 68%
    13:00 +14°C° 0 mm 2 mps 750 mmHg 72%
    14:00 +13°C° 0 mm 3 mps 749 mmHg 76%
    15:00 +13°C° 0.4 mm 3 mps 749 mmHg 81%
    16:00 +13°C° 0.4 mm 4 mps 749 mmHg 87%
    17:00 +13°C° 0.4 mm 4 mps 748 mmHg 92%
    18:00 +13°C° 0.3 mm 5 mps 748 mmHg 92%
    19:00 +14°C° 0.3 mm 5 mps 748 mmHg 92%
    20:00 +14°C° 0.3 mm 5 mps 747 mmHg 92%
    21:00 +14°C° 0.1 mm 5 mps 747 mmHg 92%
    22:00 +14°C° 0.1 mm 6 mps 746 mmHg 92%
    23:00 +15°C° 0.1 mm 6 mps 746 mmHg 91%

    Tomorrow, 13 November, Wednesday

    Time Temperature Precipitation Wind Pressure Humidity
    00:00 +15°C° 0.6 mm 6 mps 746 mmHg 91%
    01:00 +15°C° 0.6 mm 6 mps 745 mmHg 91%
    02:00 +15°C° 0.6 mm 6 mps 745 mmHg 91%
    03:00 +14°C° 0.1 mm 5 mps 745 mmHg 92%
    04:00 +13°C° 0.1 mm 4 mps 745 mmHg 92%
    05:00 +13°C° 0.1 mm 3 mps 746 mmHg 93%
    06:00 +13°C° 0 mm 3 mps 746 mmHg 93%
    07:00 +14°C° 0 mm 3 mps 747 mmHg 93%
    08:00 +15°C° 0 mm 2 mps 747 mmHg 92%
    09:00 +15°C° 0 mm 4 mps 748 mmHg 86%
    10:00 +16°C° 0 mm 5 mps 748 mmHg 80%
    11:00 +16°C° 0 mm 7 mps 749 mmHg 73%
    12:00 +16°C° 0 mm 7 mps 749 mmHg 70%
    13:00 +16°C° 0 mm 7 mps 749 mmHg 67%
    14:00 +15°C° 0 mm 7 mps 749 mmHg 64%
    15:00 +14°C° 0 mm 6 mps 749 mmHg 69%
    16:00 +13°C° 0 mm 6 mps 749 mmHg 74%
    17:00 +10°C° 0 mm 5 mps 749 mmHg 79%
    18:00 +12°C° 0.1 mm 5 mps 749 mmHg 79%
    19:00 +12°C° 0.1 mm 5 mps 749 mmHg 78%
    20:00 +12°C° 0.1 mm 5 mps 749 mmHg 78%
    21:00 +11°C° 0.3 mm 6 mps 748 mmHg 79%
    22:00 +11°C° 0.3 mm 7 mps 748 mmHg 79%
    23:00 +11°C° 0.3 mm 8 mps 748 mmHg 80%

    Day after tomorrow, 14 November, Thursday

    Time Temperature Precipitation Wind Pressure Humidity
    00:00 +10°C° 0.5 mm 9 mps 747 mmHg 80%
    01:00 +8°C° 0.5 mm 9 mps 747 mmHg 80%
    02:00 +8°C° 0.5 mm 9 mps 746 mmHg 80%
    03:00 +7°C° 0.8 mm 9 mps 746 mmHg 80%
    04:00 +7°C° 0.8 mm 8 mps 746 mmHg 79%
    05:00 +6°C° 0.8 mm 7 mps 746 mmHg 79%
    06:00 +7°C° 0.6 mm 8 mps 746 mmHg 77%
    07:00 +7°C° 0.6 mm 8 mps 745 mmHg 76%
    08:00 +7°C° 0.6 mm 9 mps 745 mmHg 74%
    09:00 +8°C° 1 mm 9 mps 745 mmHg 72%
    10:00 +9°C° 1 mm 8 mps 745 mmHg 70%
    11:00 +10°C° 1 mm 8 mps 745 mmHg 68%
    12:00 +10°C° 0.3 mm 8 mps 745 mmHg 67%
    13:00 +10°C° 0.3 mm 8 mps 745 mmHg 67%
    14:00 +10°C° 0.3 mm 8 mps 745 mmHg 66%
    15:00 +9°C° 0.4 mm 8 mps 745 mmHg 70%
    16:00 +9°C° 0.4 mm 7 mps 745 mmHg 74%
    17:00 +8°C° 0.4 mm 7 mps 745 mmHg 77%
    18:00 +6°C° 0.3 mm 7 mps 746 mmHg 77%
    19:00 +7°C° 0.3 mm 6 mps 746 mmHg 77%
    20:00 +7°C° 0.3 mm 6 mps 746 mmHg 77%
    21:00 +5°C° 0.4 mm 6 mps 746 mmHg 77%
    22:00 +5°C° 0.4 mm 6 mps 746 mmHg 77%
    23:00 +5°C° 0.4 mm 6 mps 746 mmHg 78%

    15 November, Friday

    Time Temperature Precipitation Wind Pressure Humidity
    00:00 +6°C° 0.2 mm 5 mps 746 mmHg 77%
    01:00 +5°C° 0.2 mm 5 mps 745 mmHg 77%
    02:00 +5°C° 0.2 mm 4 mps 745 mmHg 76%
    03:00 +5°C° 0.1 mm 4 mps 745 mmHg 77%
    04:00 +4°C° 0.1 mm 4 mps 745 mmHg 77%
    05:00 +4°C° 0.1 mm 4 mps 745 mmHg 78%
    06:00 +5°C° 0.1 mm 4 mps 746 mmHg 77%
    07:00 +5°C° 0.1 mm 3 mps 746 mmHg 75%
    08:00 +7°C° 0.1 mm 3 mps 746 mmHg 74%
    09:00 +7°C° 0.1 mm 4 mps 746 mmHg 69%
    10:00 +8°C° 0.1 mm 4 mps 746 mmHg 64%
    11:00 +10°C° 0.1 mm 4 mps 746 mmHg 58%
    12:00 +9°C° 0.2 mm 5 mps 745 mmHg 59%
    13:00 +10°C° 0.2 mm 6 mps 744 mmHg 60%
    14:00 +10°C° 0.2 mm 6 mps 744 mmHg 61%
    15:00 +9°C° 0.3 mm 6 mps 744 mmHg 66%
    16:00 +8°C° 0.3 mm 6 mps 744 mmHg 71%
    17:00 +7°C° 0.3 mm 6 mps 744 mmHg 76%
    18:00 +5°C° 0.1 mm 6 mps 745 mmHg 77%
    19:00 +6°C° 0.1 mm 5 mps 745 mmHg 78%
    20:00 +6°C° 0.1 mm 5 mps 746 mmHg 79%
    21:00 +5°C° 0 mm 5 mps 746 mmHg 80%
    22:00 +5°C° 0 mm 4 mps 747 mmHg 81%
    23:00 +4°C° 0 mm 4 mps 748 mmHg 83%

    16 November, Saturday

    Time Temperature Precipitation Wind Pressure Humidity
    00:00 +4°C° 0 mm 4 mps 748 mmHg 83%
    01:00 +4°C° 0 mm 3 mps 748 mmHg 84%
    02:00 +3°C° 0 mm 3 mps 748 mmHg 84%
    03:00 +3°C° 0 mm 3 mps 749 mmHg 84%
    04:00 +3°C° 0 mm 3 mps 749 mmHg 84%
    05:00 +4°C° 0 mm 2 mps 749 mmHg 84%
    06:00 +5°C° 0 mm 2 mps 750 mmHg 81%
    07:00 +5°C° 0 mm 2 mps 750 mmHg 77%
    08:00 +7°C° 0 mm 1 mps 750 mmHg 74%
    09:00 +9°C° 0 mm 1 mps 750 mmHg 68%
    10:00 +11°C° 0 mm 1 mps 750 mmHg 62%
    11:00 +12°C° 0 mm 1 mps 750 mmHg 56%
    12:00 +12°C° 0 mm 2 mps 750 mmHg 57%
    13:00 +13°C° 0 mm 2 mps 749 mmHg 58%
    14:00 +12°C° 0 mm 3 mps 749 mmHg 59%
    15:00 +11°C° 0.1 mm 3 mps 749 mmHg 65%
    16:00 +10°C° 0.1 mm 3 mps 749 mmHg 72%
    17:00 +9°C° 0.1 mm 2 mps 748 mmHg 78%
    18:00 +9°C° 0.6 mm 3 mps 748 mmHg 82%
    19:00 +8°C° 0.6 mm 4 mps 748 mmHg 86%
    20:00 +8°C° 0.6 mm 4 mps 747 mmHg 90%
    21:00 +10°C° 1.6 mm 4 mps 747 mmHg 91%
    22:00 +10°C° 1.6 mm 4 mps 746 mmHg 93%
    23:00 +10°C° 1.6 mm 3 mps 746 mmHg 95%

    17 November, Sunday

    Time Temperature Precipitation Wind Pressure Humidity
    00:00 +11°C° 0.6 mm 4 mps 745 mmHg 94%
    01:00 +12°C° 0.6 mm 4 mps 745 mmHg 94%
    02:00 +12°C° 0.6 mm 4 mps 744 mmHg 94%
    03:00 +12°C° 0.9 mm 5 mps 743 mmHg 93%
    04:00 +12°C° 0.9 mm 5 mps 742 mmHg 93%
    05:00 +13°C° 0.9 mm 6 mps 742 mmHg 93%
    06:00 +13°C° 5.7 mm 6 mps 741 mmHg 93%
    07:00 +13°C° 5.7 mm 6 mps 741 mmHg 94%
    08:00 +12°C° 5.7 mm 7 mps 741 mmHg 94%
    09:00 +13°C° 2 mm 6 mps 741 mmHg 92%
    10:00 +13°C° 2 mm 5 mps 741 mmHg 89%
    11:00 +13°C° 2 mm 5 mps 741 mmHg 87%
    12:00 +13°C° 0.4 mm 5 mps 741 mmHg 85%
    13:00 +12°C° 0.4 mm 5 mps 741 mmHg 83%
    14:00 +10°C° 0.4 mm 5 mps 740 mmHg 81%
    15:00 +11°C° 0.6 mm 4 mps 740 mmHg 81%
    16:00 +10°C° 0.6 mm 4 mps 741 mmHg 82%
    17:00 +8°C° 0.6 mm 4 mps 741 mmHg 83%
    18:00 +9°C° 0.4 mm 3 mps 741 mmHg 83%
    19:00 +8°C° 0.4 mm 2 mps 741 mmHg 83%
    20:00 +8°C° 0.4 mm 2 mps 741 mmHg 84%
    21:00 +8°C° 0 mm 2 mps 741 mmHg 83%
    22:00 +8°C° 0 mm 2 mps 741 mmHg 83%
    23:00 +9°C° 0 mm 1 mps 741 mmHg 83%
    Show more